Tracking 22130 objects as of 21-Jan-2021
HD Live streaming from Space Station
objects crossing your sky now

STARLINK-1569

Track STARLINK-1569 now!
10-day predictions
STARLINK-1569 is classified as:


NORAD ID: 46039
Int'l Code: 2020-055N
Perigee: 552.7 km
Apogee: 556.1 km
Inclination: 53.1 °
Period: 95.6 minutes
Semi major axis: 6925 km
RCS: Unknown
Launch date: August 7, 2020
Source: United States (US)
Launch site: AIR FORCE EASTERN TEST RANGE (AFETR)
aabbcc
Your satellite tracking list
Your tracking list is empty




NASA's NSSDC Master Catalog

Two Line Element Set (TLE):
1 46039U 20055N   21021.44611761  .00000161  00000-0  29730-4 0  9993
2 46039  53.0556 255.9186 0002438  80.1304 279.9960 15.06383427 26545
Source of the keplerian elements: AFSPC